Погода в Лавале

Канада     45°36′19″N   73°44′03″W
темп.,
°C
ветер,
м/с
пор.,
м/с
влажн.,
%
обл.,
%
осадки,
мм/ч
давл.,
гПа
погр.,
м
7 мая, пт
пт723:00+8зсз23595 0.0 101563
02:00+6зсз11665 0.0 101526
05:00+5св127199 0.0 101555
08:00+7ююв227499 0.0 1016367
11:00+11ю226090 0.1 1015840
14:00+13ю2350100 0.3 10131539
17:00+12сз2153100 0.1 1012793
20:00+11ссз356686 0.1 1013317
8 мая, сб
сб823:00+9с378199 0.3 1012292
02:00+9всв368041 0.3 1010305
05:00+7вюв3886100 0.0 1010232
08:00+9вюв3566100 0.0 1012303
11:00+13юв3546100 0.0 10121297
14:00+15ю3441100 0.0 10111852
17:00+13вюв3359100 0.3 1012632
20:00+10зсз5780100 0.9 1013460
9 мая, вс
вс923:00+9зсз258786 0.1 1014199
02:00+8зсз258863 0.1 1015164
05:00+6з388979 0.0 1016301
08:00+8з367923 0.0 1016455
11:00+12юз466283 0.0 10151244
14:00+13зюз355390 0.1 10131447
17:00+15ююз3447100 0.0 10111467
20:00+13ююв1259100 0.0 101060
10 мая, пн
пн1023:00+11ю1273100 0.0 1009114
02:00+10ю1281100 0.3 1006107
05:00+9в1292100 1.8 1004197
08:00+8вюв2691100 4.2 1005596
11:00+8з2494100 1.2 1005305
14:00+9з3792100 1.8 1005443
17:00+10з4785100 0.4 1005750
20:00+8зсз51183100 0.7 1007736
11 мая, вт
вт1123:00+6зсз6108586 0.0 1008719
02:00+5з61196100 1.1 1009889
05:00+4зсз7118896 1.6 1010861
08:00+4зсз7108099 1.6 10111062
11:00+6з71166100 0.1 10121389
14:00+7з81259100 0.1 10121668
17:00+7зсз71168100 0.3 10131468
20:00+5зсз61081100 0.5 1014912